User: anonymous   Login
Location: Unspecified
(0.0000°N, 0.0000°E)
Time: 04:50:35
(UTC+00:00)
Language:

Vela 2A - Orbit

View from above orbital plane
View from above orbital plane
View from above satellite
View from above satellite

Ground track
Ground track

The orbit data is extracted from the following two-line orbital elements,

1 00836U 64040A   15032.01521170 -.00000169  00000-0  00000+0 0  5575
2 00836 081.9221 324.1461 3289441 255.8853 000.4896 00.23918163 44154
Epoch (UTC): 01 February 2015 00:21:54
Eccentricity: 0.3289441
inclination: 81.9221°
perigee height: 67187 km
apogee height: 139308 km
right ascension of ascending node: 324.1461°
argument of perigee: 255.8853°
revolutions per day: 0.23918163
mean anomaly at epoch: 0.4896°
orbit number at epoch: 4415

The dashed part of the orbit path shows where the satellite is in the earth's shadow,  

DLR